{"data":{"norad_id":54084,"epoch":"2026-05-25T00:12:58.025088Z","epoch_age_seconds":84473,"freshness":"FRESH","line1":"1 54084U 22136AK  26145.00900492 -.00002007  00000+0 -10799-3 0  9996","line2":"2 54084  53.2124 351.6537 0002469  94.2332 265.8943 15.08849084198501","mean_motion":15.08849084,"eccentricity":0.0002469,"inclination_deg":53.2124,"raan_deg":351.6537,"arg_perigee_deg":94.2332,"mean_anomaly_deg":265.8943,"bstar":-0.00010799,"rev_number":19850,"period_min":95.436980097607,"perigee_km":538.00760513691,"apogee_km":541.42364076212,"semimajor_km":6917.8526229495,"source":"CELESTRAK","updated_at":"2026-05-25T13:38:17.653826Z"}}